Погода в Тамбицах

Россия / Республика Карелия     62°29′34″N   36°09′19″E
темп.,
°C
ветер,
м/с
пор.,
м/с
влажн.,
%
обл.,
%
осадки,
мм/ч
давл.,
гПа
погр.,
м
7 мая, пт
пт700:00+5ююз61294100 2.8 990984
03:00+2ююз71490100 2.9 9931084
06:00+1ююз61390100 0.0 995995
09:00+3ююз6128397 0.1 998919
12:00+5юз61182100 0.1 10001028
15:00+5ююз51188100 0.2 10021023
18:00+4юз4995100 0.1 1003667
21:00+4ююз3796100 0.1 1005574
8 мая, сб
сб800:00+3ююз3795100 0.1 1006502
03:00+3ююв2697100 0.1 1007204
06:00+4юв2693100 0.0 1007238
09:00+7вюв3680100 0.1 1006446
12:00+6юв41091100 3.8 10031057
15:00+6ю51094100 6.9 10031130
18:00+6ююв3895100 0.8 1003983
21:00+4юз2598100 1.6 1004366
9 мая, вс
вс900:00+3зсз3897100 0.3 1006530
03:00+3зсз3897100 0.3 1008473
06:00+2зсз369496 0.0 1010403
09:00+5сз35695 0.0 1011747
12:00+8сз35475 0.0 10131473
15:00+10з454583 0.0 10141992
18:00+8зюз356094 0.0 1016754
21:00+4юз377710 0.0 1017172
10 мая, пн
пн1000:00+3ююз27795 0.0 1018131
03:00+2ююз39798 0.0 1020191
06:00+4ю3117280 0.0 1021352
09:00+8ююз385999 0.0 10211072
12:00+9ююз61066100 0.0 10211284
15:00+7ююз4989100 0.1 1021633
18:00+7ююз41093100 0.1 1022620
21:00+7ююз3899100 0.9 1023277
11 мая, вт
вт1100:00+8ююз31196100 0.1 1022285
03:00+9ююз41593100 0.1 1022461
06:00+10юз51591100 0.0 1023531
09:00+12юз5138122 0.0 1024525
12:00+16юз6126697 0.0 1024774
15:00+18юз61252100 0.0 10241176
18:00+16юз5125895 0.0 10241068
21:00+12юз31273100 0.0 1024312